User: anonymous   Login
Location: Unspecified
(0.0000°N, 0.0000°E)
Time: 23:39:53
(UTC+00:00)
Language:

NOSS 8 (H) - Orbit

View from above orbital plane
View from above orbital plane
View from above satellite
View from above satellite

Ground track
Ground track

The orbit data is extracted from the following two-line orbital elements,

1 18025U 87043H   17083.82470333 0.00000770  00000-0  11625-3 0    02
2 18025  63.3372 346.7460 0864347  40.2611 319.7389 13.44387240    04
Epoch (UTC): 24 March 2017 19:47:34
Eccentricity: 0.0864347
inclination: 63.3372°
perigee height: 447 km
apogee height: 1739 km
right ascension of ascending node: 346.7460°
argument of perigee: 40.2611°
revolutions per day: 13.44387240
mean anomaly at epoch: 319.7389°
orbit number at epoch: 0

The dashed part of the orbit path shows where the satellite is in the earth's shadow,  

DLR